Location: Stokes Fall Starparty
(41.2298°N, 74.7506°W)
Time: 11:24:33
(UTC-04:00)

Daily predictions for brighter satellites

Satellite Brightness Start Highest point End
(mag) Time Altitude Azimuth Time Altitude Azimuth Time Altitude Azimuth
Ariane Rocket 3.2 18:22:48 10° SSE 18:27:54 81° WSW 18:33:02 10° NNW
Cosmos 2151 2.9 18:25:34 10° N 18:29:51 72° E 18:34:04 10° SSE
Cosmos 2322 3.8 18:26:18 10° NNW 18:32:04 86° ENE 18:37:46 10° SSE
BREEZE M DEB (TANK) 3.9 18:28:10 10° WNW 18:34:07 30° N 18:36:43 10° ENE
METEOR-M 4.5 18:30:09 10° SE 18:35:10 44° ENE 18:40:13 10° N
Cosmos 2219 Rocket 2.9 18:30:16 10° N 18:35:19 33° ENE 18:40:20 10° ESE
EO 1 Delta rocket 4.4 18:29:59 10° SSE 18:36:41 83° E 18:42:00 10° N
COSMO-SKYMED 1 3.1 18:32:49 10° NNE 18:36:51 36° E 18:40:52 10° SSE
EO 1 Del DPAF 3.7 18:33:30 10° NNE 18:37:10 41° E 18:40:48 10° S
Landsat 4 3.6 18:34:01 10° NNE 18:37:45 80° ESE 18:41:28 10° S
SMAP 3.3 18:34:14 10° S 18:38:53 76° WSW 18:43:33 10° NNW
CZ-4C R/B 2.2 18:37:06 10° SSW 18:42:07 58° ESE 18:47:50 10° NE
Cosmos 2366 rocket 4.4 18:36:05 10° SSW 18:42:16 71° W 18:48:26 10° N
CZ-4 R/B 1.7 18:41:35 10° S 18:45:46 78° WSW 18:49:54 10° NNW
MTI 3.7 18:42:35 10° NNE 18:45:47 72° ESE 18:48:58 10° S
Cosmos 1805 Rocket 4.2 18:41:51 10° NNE 18:45:50 33° ENE 18:49:50 10° SE
Meteor 1-28 Rocket 3.2 18:43:21 10° N 18:47:08 86° WNW 18:50:53 10° SSW
Abrixas rocket 3.7 18:46:13 10° NW 18:48:59 24° N 18:51:25 12° ENE
IRS-1A Rocket 4.5 18:43:21 10° SSE 18:49:14 87° WSW 18:55:11 10° NNW
Aureole 2 Rocket 3.1 18:51:26 10° N 18:55:15 43° ENE 18:59:09 10° SE
Cosmos 1666 Rocket 4.4 18:51:41 10° NNE 18:55:22 26° ENE 18:59:02 10° SE
Cosmos 1269 Rocket 4.0 18:50:29 10° S 18:55:41 65° ESE 19:00:56 10° NNE
GRACE-2 3.5 18:53:32 10° S 18:56:04 73° E 18:58:37 10° N
Cosmos 1626 4.1 18:53:49 10° NNW 18:57:13 34° W 19:00:36 10° SSW
YAOGAN 1 2.6 18:53:02 10° SSE 18:57:21 84° WSW 19:01:43 10° NNW
Cosmos 1633 Rocket 4.1 18:55:29 10° NNE 18:59:09 25° ENE 19:02:48 10° SE
Iridium 4 Rocket 3.9 18:54:07 10° SSE 18:59:37 56° E 19:05:24 10° N
Cosmos 1315 Rocket 3.2 18:56:30 10° NNW 19:00:35 71° W 19:04:40 10° S
BREEZE-M DEB (TANK) 1.1 18:58:38 10° WSW 19:00:43 67° NNW 19:02:13 17° NE
GRACE-1 3.8 19:00:09 10° S 19:02:43 78° W 19:05:18 10° N
SKYMED 3 4.5 19:02:38 10° NNE 19:07:00 80° ESE 19:11:20 10° S
Cosmos 44 Rocket 3.7 19:03:13 10° SW 19:07:52 61° NW 19:12:32 10° NNE
Cosmos 2333 4.2 19:02:20 10° NNW 19:08:06 89° ENE 19:13:53 10° SSE
Cosmos 2084 3.4 19:07:07 10° NNW 19:10:49 49° NE 19:13:41 16° ESE
Cosmos 1908 4.0 19:07:51 10° SSW 19:11:41 56° W 19:15:32 10° N
SPOT 3 Rocket 3.5 19:06:37 10° SSE 19:11:48 79° ENE 19:17:03 10° N
PSLV R/B 3.6 19:10:46 10° SW 19:13:45 43° SSE 19:15:01 27° ESE
Cosmos 2221 2.8 19:09:36 10° SSW 19:13:55 73° W 19:18:17 10° N
Cosmos 1934 Rocket 4.2 19:07:54 10° SSE 19:14:01 52° E 19:20:10 10° NNE
Cosmos 2237 Rocket 2.8 19:08:52 10° N 19:14:08 37° ENE 19:18:22 15° ESE
Cosmos 1000 Rocket 4.4 19:09:02 10° N 19:15:17 79° E 19:21:26 10° S
Cosmos 1821 Rocket 3.9 19:11:27 10° S 19:17:36 73° E 19:23:52 10° N
SJ-6B 4.1 19:21:00 21° NE 19:21:00 21° NE 19:23:12 10° NNE
Cosmos 1110 Rocket 4.2 19:15:18 10° N 19:20:29 50° ENE 19:25:35 10° SE
Cosmos 2227 Rocket 2.7 19:15:59 10° S 19:21:08 38° ESE 19:26:10 11° NE
H-2A R/B 3.5 19:20:16 23° ESE 19:21:54 32° ENE 19:25:25 10° N
Cosmos 2239 Rocket 4.4 19:16:16 10° S 19:22:23 80° E 19:28:34 10° N
SKYMED 2 4.0 19:20:41 10° N 19:24:59 64° WNW 19:29:17 10° SSW
Cosmos 2098 Rocket 3.6 19:22:24 10° S 19:27:11 85° W 19:33:22 10° N
SL-16 R/B 3.4 19:23:06 10° N 19:27:24 21° NE 19:28:01 21° ENE
Cosmos 1300 2.5 19:29:12 10° S 19:33:01 76° E 19:36:51 10° N
Gbstr 26 Del rocket 4.0 19:33:37 10° WNW 19:38:38 63° SW 19:43:46 15° SE
Cosmos 1980 3.7 19:33:23 10° NNW 19:39:00 61° ENE 19:43:00 19° SE
ALOS 2.4 19:34:53 10° S 19:39:33 77° WSW 19:44:14 10° NNW
FENGYUN 3A 3.7 19:36:31 10° S 19:41:55 80° WSW 19:47:22 10° NNW
Meteor 2-10 3.9 19:39:07 10° S 19:44:09 88° E 19:49:21 10° N
Envisat 4.4 19:47:50 21° NE 19:47:50 21° NE 19:50:15 10° NNE
SWAS 4.3 19:44:29 10° SSW 19:48:44 85° ESE 19:50:51 29° NNE
Cosmos 2123 Rocket 3.9 19:42:52 10° N 19:49:10 83° E 19:55:27 10° S
Cosmos 2251 Rocket 3.5 19:45:20 10° S 19:50:30 59° ESE 19:54:10 20° NNE
COSMOS 2428 4.1 19:45:45 10° NW 19:50:58 38° WSW 19:56:09 10° S
Cosmos 1605 Rocket 3.8 19:46:08 10° S 19:52:12 70° E 19:58:15 10° NNE
Meteor 2-3 Rocket 4.0 19:46:53 10° N 19:52:23 44° ENE 19:53:21 41° ESE
Cosmos 2219 4.3 19:48:02 10° SW 19:53:30 44° WNW 19:58:59 10° NNE
Cosmos 2333 Rocket 2.4 19:48:10 10° NNW 19:53:54 72° WSW 19:59:38 10° SSE
Cosmos 1470 Rocket 4.0 19:49:42 10° N 19:53:14 43° NE 19:53:14 43° NE
NOSS 0 Rocket 4.0 19:49:56 10° NNW 19:56:07 79° WSW 20:02:14 10° SSE
Cosmos 2297 Rocket 2.1 19:52:31 10° S 19:58:04 64° ESE 20:00:57 29° NE
Cosmos 1726 4.1 19:55:15 10° SW 19:58:31 30° WNW 20:01:48 10° NNW
Cosmos 1153 Rocket 4.5 19:53:04 10° SSE 19:58:59 53° E 20:05:00 10° NNE
Hubble Space Telescope 3.1 19:58:41 10° SSW 20:00:30 13° S 20:00:30 13° S
USA 267 4.1 20:04:43 30° SE 20:04:43 30° SE 20:09:35 10° S
Sich 1 4.0 20:01:02 10° NNW 20:05:16 48° W 20:09:30 10° SSW
Meteor 2-17 Rocket 4.4 20:01:53 10° S 20:07:47 57° E 20:13:43 10° NNE
Cosmos 2082 3.6 20:03:49 10° SSW 20:09:31 78° ESE 20:12:12 33° NNE
Thor Agena Rocket 3.8 20:06:13 10° N 20:11:16 67° WNW 20:16:15 10° SSW
Cosmos 1331 Rocket 4.3 20:07:45 10° NNW 20:12:54 63° WSW 20:16:38 18° S
Resurs 01 Rocket 3.7 20:21:17 18° N 20:21:17 18° N 20:22:27 10° N
Cosmos 2219 Rocket 3.6 20:14:11 10° NW 20:19:14 36° WSW 20:24:18 10° S
Cosmos 1447 Rocket 4.4 20:20:00 10° N 20:26:21 87° E 20:29:04 37° S
BREEZE-M DEB (TANK) 3.3 20:23:15 10° WNW 20:29:58 54° NNW 20:29:58 54° NNW
CZ-4C R/B 4.0 20:26:32 10° W 20:31:05 26° NW 20:35:48 11° NNE
Cosmos 2228 Rocket 3.8 20:29:39 10° SSW 20:34:05 54° W 20:38:35 10° N
USA 234 4.4 20:39:19 29° NNE 20:39:37 29° NNE 20:45:04 10° NW
Cosmos 1302 Rocket 4.4 20:37:56 10° NNW 20:42:54 60° W 20:42:54 60° W
Cosmos 2237 Rocket 3.7 20:53:04 10° NW 20:58:06 33° WSW 21:00:18 25° SW
Cosmos 2227 Rocket 3.8 21:00:11 10° WSW 21:05:13 32° WNW 21:08:05 21° N
SL-16 R/B 3.4 21:06:22 10° NNW 21:09:56 38° NW 21:09:56 38° NW
Cosmos 2297 Rocket 4.4 21:38:25 10° W 21:42:36 21° NW 21:42:52 21° NW
